{"data":{"norad_id":23439,"epoch":"2026-05-24T23:14:06.540000Z","epoch_age_seconds":74931,"freshness":"FRESH","line1":"1 23439U 94085A   26144.96813125 -.00000037  00000+0  14436-3 0  9990","line2":"2 23439  64.8188 340.7693 0155281   8.1520 352.1875 11.27583628293286","mean_motion":11.27583628,"eccentricity":0.0155281,"inclination_deg":64.8188,"raan_deg":340.7693,"arg_perigee_deg":8.152,"mean_anomaly_deg":352.1875,"bstar":0.00014436,"rev_number":29328,"period_min":127.70671409571,"perigee_km":1891.8721771479,"apogee_km":2152.7583019904,"semimajor_km":8400.4522395692,"source":"CELESTRAK","updated_at":"2026-05-25T13:38:23.254199Z"}}